TimeMDT,TemperatureF,Dew PointF,Humidity,Sea Level PressureIn,VisibilityMPH,Wind Direction,Wind SpeedMPH,Gust SpeedMPH,PrecipitationIn,Events,Conditions,WindDirDegrees,DateUTC
12:53 AM,55.9,48.9,77,30.01,10.0,Calm,Calm,-,N/A,,Clear,0,2013-08-17 06:53:00
1:53 AM,54.0,46.9,77,30.00,10.0,Calm,Calm,-,N/A,,Clear,0,2013-08-17 07:53:00
2:53 AM,53.1,46.9,80,30.01,10.0,Calm,Calm,-,N/A,,Clear,0,2013-08-17 08:53:00
3:53 AM,53.1,46.9,80,30.01,10.0,North,3.5,-,N/A,,Clear,350,2013-08-17 09:53:00
4:53 AM,50.0,45.0,83,30.00,10.0,Calm,Calm,-,N/A,,Clear,0,2013-08-17 10:53:00
5:53 AM,51.1,45.0,80,30.00,10.0,Calm,Calm,-,N/A,,Clear,0,2013-08-17 11:53:00
7:53 AM,55.9,46.9,72,30.06,10.0,SSW,3.5,-,N/A,,Clear,200,2013-08-17 13:53:00
8:53 AM,64.9,46.9,52,30.04,10.0,Calm,Calm,-,N/A,,Clear,0,2013-08-17 14:53:00
9:53 AM,73.0,48.0,41,30.03,10.0,Calm,Calm,-,N/A,,Mostly Cloudy,0,2013-08-17 15:53:00
10:53 AM,77.0,48.9,37,30.00,10.0,Variable,3.5,-,N/A,,Mostly Cloudy,0,2013-08-17 16:53:00
11:53 AM,84.9,45.0,25,29.95,10.0,SE,5.8,-,N/A,,Clear,140,2013-08-17 17:53:00
12:53 PM,66.9,51.1,57,30.06,10.0,Calm,Calm,-,0.06,Rain,Light Rain,0,2013-08-17 18:53:00
1:53 PM,66.9,50.0,54,30.05,10.0,South,11.5,-,0.01,Rain,Light Rain,190,2013-08-17 19:53:00
2:53 PM,75.0,44.1,33,29.99,10.0,SE,9.2,-,0.00,Rain,Light Rain,130,2013-08-17 20:53:00
3:53 PM,71.1,48.0,44,30.01,10.0,North,11.5,-,0.00,,Partly Cloudy,360,2013-08-17 21:53:00
4:53 PM,72.0,48.0,43,29.98,10.0,NNE,8.1,-,N/A,,Mostly Cloudy,30,2013-08-17 22:53:00
5:53 PM,72.0,45.0,38,29.97,10.0,North,5.8,-,N/A,,Clear,360,2013-08-17 23:53:00
6:53 PM,69.1,48.0,47,30.02,10.0,SW,16.1,25.3,N/A,,Mostly Cloudy,220,2013-08-18 00:53:00
7:53 PM,66.9,48.0,51,30.02,10.0,SW,6.9,-,0.00,,Mostly Cloudy,230,2013-08-18 01:53:00
8:53 PM,64.9,48.9,56,30.04,10.0,Variable,4.6,-,N/A,,Clear,0,2013-08-18 02:53:00
9:53 PM,63.0,50.0,63,30.04,10.0,WSW,6.9,-,N/A,,Clear,240,2013-08-18 03:53:00
10:53 PM,63.0,50.0,63,30.02,10.0,Calm,Calm,-,N/A,,Scattered Clouds,0,2013-08-18 04:53:00
11:53 PM,62.1,51.1,67,29.97,10.0,Calm,Calm,-,N/A,,Mostly Cloudy,0,2013-08-18 05:53:00